KG1ZR Weather Reports


Display with metric or nautical units.
time (UTC)temp
F
wind
direction
speed
MPH
gust
MPH
rain 1hr
in
rain 24hr
in
rain mn
in
humidity
%
barometer
mb
20260902125701 64 92 2.0 4.0 0.00 0.00 0.00 50 1021.9
20260902124700 62 285 1.0 3.0 0.00 0.00 0.00 50 1022.0
20260902123700 62 114 0.0 0.0 0.00 0.00 0.00 50 1022.0
20260902122701 61 69 0.0 6.0 0.00 0.00 0.00 50 1022.0
20260902121701 61 107 2.0 6.0 0.00 0.00 0.00 51 1022.0
20260902120701 61 67 1.0 3.0 0.00 0.00 0.00 51 1022.2
20260902115701 60 44 0.0 2.0 0.00 0.00 0.00 51 1022.2
20260902114701 60 44 0.0 2.0 0.00 0.00 0.00 51 1022.1
20260902113701 60 42 0.0 2.0 0.00 0.00 0.00 51 1022.1
20260902112702 60 27 0.0 2.0 0.00 0.00 0.00 51 1022.2
20260902111701 60 77 1.0 3.0 0.00 0.00 0.00 51 1022.0
20260902110701 60 67 0.0 2.0 0.00 0.00 0.00 52 1021.8
20260902105701 60 67 0.0 1.0 0.00 0.00 0.00 52 1021.7
20260902104701 60 67 0.0 2.0 0.00 0.00 0.00 52 1021.5
20260902103703 60 56 0.0 2.0 0.00 0.00 0.00 52 1021.5
20260902102701 60 65 0.0 2.0 0.00 0.00 0.00 52 1021.6
20260902101701 60 65 0.0 4.0 0.00 0.00 0.00 52 1021.4
20260902100700 60 65 2.0 4.0 0.00 0.00 0.00 52 1021.4
20260902095701 60 39 2.0 5.0 0.00 0.00 0.00 52 1021.5
20260902094701 60 58 1.0 3.0 0.00 0.00 0.00 52 1021.7
20260902094616 60 47 1.0 4.0 0.00 0.00 0.00 52 1021.5
20260902092701 60 67 1.0 2.0 0.00 0.00 0.00 52 1021.6
20260902091701 60 57 1.0 4.0 0.00 0.00 0.00 52 1021.5
20260902090701 60 46 2.0 4.0 0.00 0.00 0.00 52 1021.5
20260902085702 60 55 1.0 4.0 0.00 0.00 0.00 52 1021.6
20260902084701 60 57 1.0 3.0 0.00 0.00 0.00 52 1021.5
20260902083701 60 52 1.0 3.0 0.00 0.00 0.00 52 1021.5
20260902082701 60 40 1.0 3.0 0.00 0.00 0.00 52 1021.4
20260902081700 60 47 0.0 3.0 0.00 0.00 0.00 52 1021.3
20260902080700 60 75 1.0 3.0 0.00 0.00 0.00 52 1021.3
20260902075702 60 45 0.0 2.0 0.00 0.00 0.00 52 1021.2
20260902074701 60 56 0.0 1.0 0.00 0.00 0.00 52 1021.0
20260902073701 60 44 0.0 2.0 0.00 0.00 0.00 52 1021.0
20260902072701 60 67 0.0 3.0 0.00 0.00 0.00 52 1020.8
20260902071701 60 67 0.0 3.0 0.00 0.00 0.00 52 1020.9
20260902070700 59 43 0.0 0.0 0.00 0.00 0.00 53 1020.8
20260902065701 59 51 0.0 0.0 0.00 0.00 0.00 53 1020.8
20260902064701 59 94 0.0 0.0 0.00 0.00 0.00 53 1021.0
20260902063701 59 94 0.0 0.0 0.00 0.00 0.00 53 1021.0
20260902062702 59 94 0.0 0.0 0.00 0.00 0.00 54 1020.8
20260902055701 59 155 0.0 0.0 0.00 0.00 0.00 53 1020.6
20260902054702 59 155 0.0 0.0 0.00 0.00 0.00 53 1020.4
20260902053701 59 155 0.0 0.0 0.00 0.00 0.00 53 1020.3
20260902052701 59 155 0.0 0.0 0.00 0.00 0.00 53 1020.2
20260902051702 59 55 0.0 0.0 0.00 0.00 0.00 54 1020.1
20260902050702 59 55 0.0 1.0 0.00 0.00 0.00 54 1020.0
20260902050151 59 55 0.0 1.0 0.00 0.00 0.00 54 1020.0
20260902044701 58 93 0.0 0.0 0.00 0.00 0.00 55 1020.0
20260902043701 57 130 0.0 0.0 0.00 0.00 0.00 56 1019.9
20260902042702 57 42 0.0 0.0 0.00 0.00 0.00 57 1019.9
20260902042134 56 42 0.0 0.0 0.00 0.00 0.00 58 1019.8
20260902040701 56 42 0.0 0.0 0.00 0.00 0.00 59 1019.8
20260902035701 56 42 0.0 0.0 0.00 0.00 0.00 60 1019.8
20260902034701 56 42 0.0 0.0 0.00 0.00 0.00 60 1019.6
20260902033701 56 42 0.0 0.0 0.00 0.00 0.00 61 1019.6
20260902032701 56 42 0.0 0.0 0.00 0.00 0.00 61 1019.5
20260902031701 57 42 0.0 0.0 0.00 0.00 0.00 62 1019.4
20260902030701 57 42 0.0 0.0 0.00 0.00 0.00 62 1019.2
20260902025701 58 42 0.0 0.0 0.00 0.00 0.00 62 1019.0
20260902024701 58 42 0.0 0.0 0.00 0.00 0.00 63 1019.1
20260902023701 58 42 0.0 0.0 0.00 0.00 0.00 63 1019.1
20260902022658 59 42 0.0 0.0 0.00 0.00 0.00 64 1019.2
20260902021657 59 42 0.0 0.0 0.00 0.00 0.00 65 1019.1
20260902021137 60 269 0.0 0.0 0.00 0.00 0.00 64 1019.1
20260902015657 61 290 0.0 0.0 0.00 0.00 0.00 65 1019.0
20260902014656 62 207 0.0 0.0 0.00 0.00 0.00 66 1018.8
20260902013657 62 146 0.0 1.0 0.00 0.00 0.00 66 1019.0
20260902013149 62 172 1.0 4.0 0.00 0.00 0.00 66 1019.2
20260902011657 62 171 1.0 4.0 0.00 0.00 0.00 67 1019.1
20260902010657 62 229 1.0 4.0 0.00 0.00 0.00 68 1018.9
20260902005657 62 198 1.0 4.0 0.00 0.00 0.00 69 1018.8
20260902004656 63 232 1.0 4.0 0.00 0.00 0.00 69 1018.8
20260902003657 63 173 1.0 3.0 0.00 0.00 0.00 70 1018.6
20260902002657 63 193 1.0 4.0 0.00 0.00 0.00 71 1018.5
20260902001657 64 225 1.0 6.0 0.00 0.00 0.00 72 1018.4
20260902000657 64 106 1.0 7.0 0.00 0.00 0.00 73 1018.3
20260901235657 65 188 1.0 4.0 0.00 0.00 0.00 74 1018.2
20260901234656 65 215 1.0 5.0 0.00 0.00 0.00 75 1018.2
20260901233656 66 134 1.0 4.0 0.00 0.00 0.00 75 1018.1
20260901233143 67 123 1.0 4.0 0.00 0.00 0.00 75 1018.1
20260901232611 67 132 1.0 7.0 0.00 0.00 0.00 75 1018.1
20260901230656 68 90 2.0 7.0 0.00 0.00 0.00 75 1018.1
20260901225657 68 127 2.0 7.0 0.00 0.00 0.00 74 1018.0
20260901224653 69 200 1.0 7.0 0.00 0.00 0.00 74 1018.0
20260901223652 69 121 3.0 7.0 0.00 0.00 0.00 74 1017.9
20260901222653 69 121 1.0 8.0 0.00 0.00 0.00 74 1017.9
20260901221653 69 98 3.0 7.0 0.00 0.00 0.00 74 1017.8
20260901220653 70 211 2.0 10.0 0.00 0.00 0.00 73 1017.7
20260901215652 70 70 3.0 10.0 0.00 0.00 0.00 73 1017.6
20260901214653 70 107 3.0 9.0 0.00 0.00 0.00 73 1017.5
20260901214132 71 74 3.0 10.0 0.00 0.00 0.00 72 1017.3
20260901212652 71 175 3.0 10.0 0.00 0.00 0.00 71 1017.2
20260901211652 72 77 3.0 10.0 0.00 0.00 0.00 70 1017.2
20260901210653 74 208 4.0 10.0 0.00 0.00 0.00 67 1017.3
20260901205652 75 140 4.0 8.0 0.00 0.00 0.00 63 1017.0
20260901205127 76 82 1.0 6.0 0.00 0.00 0.00 57 1016.9
20260901203648 76 355 0.0 2.0 0.00 0.00 0.00 60 1016.7
20260901202646 75 288 0.0 1.0 0.00 0.00 0.00 58 1016.6
20260901201646 76 288 1.0 4.0 0.00 0.00 0.00 52 1016.6
20260901200647 77 119 2.0 6.0 0.00 0.00 0.00 52 1016.7
20260901195646 76 80 2.0 7.0 0.00 0.00 0.00 55 1016.8
20260901194646 76 64 3.0 8.0 0.00 0.00 0.00 54 1016.7
20260901193646 76 71 3.0 8.0 0.00 0.00 0.00 56 1016.8
20260901192645 76 82 4.0 9.0 0.00 0.00 0.00 55 1016.9
20260901191644 77 72 3.0 9.0 0.00 0.00 0.00 55 1017.0
20260901190644 77 22 1.0 4.0 0.00 0.00 0.00 57 1017.1
20260901185642 76 116 3.0 9.0 0.00 0.00 0.00 53 1017.2
20260901184643 76 32 4.0 9.0 0.00 0.00 0.00 57 1017.2
20260901183640 76 56 2.0 10.0 0.00 0.00 0.00 54 1017.0
20260901182639 75 259 1.0 6.0 0.00 0.00 0.00 57 1017.1
20260901181637 75 24 4.0 9.0 0.00 0.00 0.00 58 1017.0
20260901180636 74 26 4.0 9.0 0.00 0.00 0.00 59 1017.0
20260901175633 74 83 3.0 9.0 0.00 0.00 0.00 60 1017.0
20260901175114 74 41 4.0 10.0 0.00 0.00 0.00 63 1017.0
20260901173632 74 54 3.0 9.0 0.00 0.00 0.00 63 1017.1
20260901172632 73 80 4.0 9.0 0.00 0.00 0.00 66 1017.1
20260901171634 73 40 5.0 10.0 0.00 0.00 0.00 64 1017.2
20260901170632 73 76 2.0 9.0 0.00 0.00 0.00 67 1017.2
20260901165632 72 64 3.0 8.0 0.00 0.00 0.00 69 1017.3
20260901165114 71 96 3.0 8.0 0.00 0.00 0.00 70 1017.3
20260901163631 71 78 3.0 9.0 0.00 0.00 0.00 67 1017.5
20260901163119 71 57 4.0 8.0 0.00 0.00 0.00 69 1017.3
20260901161632 71 74 3.0 8.0 0.00 0.00 0.00 69 1017.4
20260901161555 71 121 4.0 9.0 0.00 0.00 0.00 69 1017.5
20260901155632 70 74 2.0 9.0 0.00 0.00 0.00 69 1017.5
20260901154632 69 92 3.0 9.0 0.00 0.00 0.00 70 1017.5
20260901154112 69 52 2.0 8.0 0.00 0.00 0.00 70 1017.7
20260901152628 68 68 3.0 9.0 0.00 0.00 0.00 70 1017.6
20260901151628 68 29 3.0 7.0 0.00 0.00 0.00 71 1017.5
20260901150626 68 58 3.0 8.0 0.00 0.00 0.00 71 1017.6
20260901145627 67 35 3.0 8.0 0.00 0.00 0.00 73 1017.6
20260901144626 67 34 3.0 11.0 0.00 0.00 0.00 71 1017.7
20260901144109 66 25 5.0 11.0 0.00 0.00 0.00 71 1017.8
20260901142626 65 77 5.0 13.0 0.00 0.00 0.00 72 1017.8
20260901142108 65 90 4.0 10.0 0.00 0.00 0.00 71 1017.8
20260901140624 66 36 4.0 10.0 0.00 0.00 0.00 73 1017.8
20260901135618 65 48 4.0 8.0 0.00 0.00 0.00 73 1017.9
20260901134618 65 86 3.0 7.0 0.00 0.00 0.00 74 1018.0
20260901133618 64 117 1.0 8.0 0.00 0.00 0.00 74 1018.1
20260901132616 63 68 3.0 7.0 0.00 0.00 0.00 74 1018.1
20260901131617 62 177 3.0 10.0 0.00 0.00 0.00 74 1018.0
20260901130616 61 51 4.0 10.0 0.00 0.00 0.00 73 1018.1